This demonstration page uses our WeatherBlox Daily Observations layout. Learn more.

Left ArrowRight Arrow

38.88101, -77.10428

Hourly Observations for January 29, 2021

Temp ( °F °C ) Dew Point ( °F °C ) Humidity (%) Winds ( mph kmh ) Pressure ( in mb ) Visibility ( mi km ) Precip ( " mm )
12:52 am 00:52 Partly Cloudy 26 -3.3 7 -13.9 44 44 NW 21 33 30.30 1026 10 16 0.00 0.00
1:52 am 01:52 Partly Cloudy 26 -3.3 8 -13.3 46 46 NNW 17 28 30.29 1026 10 16 0.00 0.00
2:52 am 02:52 Cloudy 27 -2.8 8 -13.3 45 45 NNW 23 37 30.29 1026 10 16 0.00 0.00
3:52 am 03:52 Mostly Cloudy 26 -3.3 10 -12.2 51 51 NNW 25 41 30.31 1026 10 16 0.00 0.00
4:52 am 04:52 Mostly Clear 25 -3.9 5 -15 42 42 NW 16 26 30.28 1026 10 16 0.00 0.00
5:52 am 05:52 Clear 25 -3.9 6 -14.4 44 44 NW 10 17 30.30 1026 10 16 0.00 0.00
6:52 am 06:52 Mostly Clear 25 -3.9 6 -14.4 44 44 WNW 10 17 30.31 1027 10 16 0.00 0.00
7:52 am 07:52 Mostly Sunny 26 -3.3 7 -13.9 44 44 WNW 16 26 30.32 1027 10 16 0.00 0.00
8:52 am 08:52 Mostly Sunny 28 -2.2 8 -13.3 43 43 NNW 8 13 30.32 1027 10 16 0.00 0.00
9:52 am 09:52 Mostly Cloudy 30 -1.1 8 -13.3 39 39 NW 20 31 30.32 1027 10 16 0.00 0.00
10:52 am 10:52 Mostly Cloudy 30 -1.1 8 -13.3 39 39 NW 25 41 30.31 1026 10 16 0.00 0.00
11:52 am 11:52 Mostly Cloudy 31 -0.6 8 -13.3 38 38 NW 22 35 30.29 1026 10 16 0.00 0.00
12:52 pm 12:52 Mostly Cloudy 31 -0.6 9 -12.8 40 40 NW 16 26 30.27 1025 10 16 0.00 0.00
1:52 pm 13:52 Mostly Cloudy 32 0 9 -12.8 38 38 NNW 22 35 30.26 1025 10 16 0.00 0.00
2:52 pm 14:52 Cloudy 33 0.6 9 -12.8 36 36 NW 17 28 30.26 1025 10 16 0.00 0.00
3:52 pm 15:52 Cloudy 33 0.6 8 -13.3 35 35 NW 17 28 30.26 1025 10 16 0.00 0.00
4:52 pm 16:52 Mostly Cloudy 32 0 9 -12.8 38 38 NW 16 26 30.27 1025 10 16 0.00 0.00
5:52 pm 17:52 Mostly Cloudy 32 0 9 -12.8 38 38 W 15 24 30.29 1026 10 16 0.00 0.00
6:52 pm 18:52 Mostly Cloudy 31 -0.6 8 -13.3 38 38 NW 13 20 30.30 1026 10 16 0.00 0.00
7:52 pm 19:52 Mostly Cloudy 30 -1.1 9 -12.8 41 41 NW 15 24 30.31 1026 10 16 0.00 0.00
8:52 pm 20:52 Mostly Cloudy 30 -1.1 9 -12.8 41 41 NW 15 24 30.31 1027 10 16 0.00 0.00
9:52 pm 21:52 Mostly Cloudy 30 -1.1 10 -12.2 43 43 NW 13 20 30.32 1027 10 16 0.00 0.00
10:52 pm 22:52 Mostly Cloudy 30 -1.1 10 -12.2 43 43 WNW 8 13 30.33 1027 10 16 0.00 0.00
11:52 pm 23:52 Mostly Cloudy 29 -1.7 9 -12.8 43 43 NW 12 19 30.32 1027 10 16 0.00 0.00

Powered by AerisWeather